Regional Weather Roundup
Issued by NWS Bismarck, ND

Home | Current Version | Previous Version | Text Only | Print | Product List | Glossary On
Versions: 1 2 3 4 5 6 7 8 9 10 11 12 13 14 15 16 17 18 19 20 21 22 23 24 25 26 27 28 29 30 31 32 33 34 35 36 37 38 39 40 41 42 43 44 45 46 47 48 49 50
000
ASUS43 KBIS 031801
RWRBIS

NWR BROADCAST TEXT
NATIONAL WEATHER SERVICE BISMARCK ND
100 PM CDT SUN MAY 03 2015

NOTE: "FAIR" INDICATES FEW OR NO CLOUDS BELOW 12,000 FEET WITH NO
SIGNIFICANT WEATHER AND/OR OBSTRUCTIONS TO VISIBILITY.


CITY           SKY/WX    TMP DP  RH WIND       PRES   REMARKS
WILLISTON      LGT RAIN  60  25  26 NW14      30.04S
MINOT          SUNNY     60  26  27 W18G29    29.99R
MINOT AFB      SUNNY     61  28  28 NW17      29.98R
BISMARCK       SUNNY     64  25  22 NW18G25   29.99S
DICKINSON      SUNNY     60  28  29 NW13G20   30.02R
GARRISON         N/A     62  23  22 NW12G31   30.00R
HETTINGER ARPT PTSUNNY   55  31  39 N8        30.04R
JAMESTOWN      CLOUDY    62  28  27 N26G35    29.93R
CARRINGTON     FAIR      63  23  22 NW22G31   29.96F
HAZEN          FAIR      61  27  27 NW16      30.02S
OAKES            N/A     63  32  31 N18G25    29.92R
STANLEY        FAIR      57  27  30 NW17G24   30.02R
$$

CITY           SKY/WX    TMP DP  RH WIND       PRES   REMARKS
GRAND FORKS    CLOUDY    64  29  26 NW16G23   29.90S
GRAND FORKS AF CLOUDY    65  26  22 NW17G29   29.90S
DEVILS LAKE    SUNNY     63  25  23 NW24G30   29.92S
FARGO          PTSUNNY   63  32  31 N20G28    29.91R
CANDO          FAIR      63  25  23 NW16G29   29.94S
CAVALIER       FAIR      63  30  29 W21G30    29.89S
GRAFTON        FAIR      64  30  27 NW16G24   29.90S
GWINNER        CLEAR     66  34  30 N21G26    29.94R
LANGDON        FAIR      61  30  31 NW22G29   29.92S
WALHALLA       FAIR      63  28  27 NW24G33   29.90R
$$

CITY           SKY/WX    TMP DP  RH WIND       PRES   REMARKS
ABERDEEN       PTSUNNY   68  35  29 N24G30    29.92R
MOBRIDGE       PTSUNNY   65  35  33 N16G24    29.93S
BUFFALO          N/A     54  34  46 N10       30.00R
RAPID CITY     SUNNY     67  37  33 N15G23    30.01R
GLASGOW        CLOUDY    55  26  32 NW10      30.08R
SIDNEY         SUNNY     59  27  29 NW8G18    30.06S
WOLF POINT     SUNNY     61  25  25 NW12      30.06S
GLENDIVE       MOSUNNY   57  25  28 NW6       30.07R
MILES CITY     CLOUDY    58  31  35 E7        30.06S
BAKER          SUNNY     60  30  32 VRB6      30.05S
$$

CITY           SKY/WX    TMP DP  RH WIND       PRES   REMARKS
BILLINGS       MOSUNNY   57  27  31 E9        30.04S
GREAT FALLS    SUNNY     54  32  43 SE7       30.01F
$$



USA.gov is the U.S. government's official web portal to all federal, state and local government web resources and services.